This demonstration page uses our WeatherBlox Daily Observations layout. Learn more.

Left ArrowRight Arrow

39.92423, -83.80882

Hourly Observations for January 25, 2018

Temp ( °F °C ) Dew Point ( °F °C ) Humidity (%) Winds ( mph kmh ) Pressure ( in mb ) Visibility ( mi km ) Precip ( " mm )
12:56 am 00:56 Cloudy 27 -2.8 23 -5 85 85 W 8 13 30.4 1030 9 14.48406 0 0.0254
1:13 am 01:13 Cloudy with Light Snow 27 -3 23 -5 86 86 W 9 15 30.42 1030 9 14.48406 0 0.0254
1:56 am 01:56 Cloudy 27 -2.8 23 -5 85 85 W 8 13 30.42 1030 10 16.0934 0 0.0254
2:56 am 02:56 Cloudy 27 -2.8 23 -5 85 85 WSW 8 13 30.43 1031 10 16.0934 0 0
3:56 am 03:56 Cloudy 26 -3.3 23 -5 88 88 WSW 6 9 30.44 1031 10 16.0934 0 0
4:56 am 04:56 Cloudy 25 -3.9 22 -5.6 88 88 SW 7 11 30.45 1031 9 14.48406 0 0
5:56 am 05:56 Cloudy 24 -4.4 21 -6.1 88 88 SSW 6 9 30.47 1032 8 12.87472 0 0
6:56 am 06:56 Mostly Clear 21 -6.1 19 -7.2 92 92 SSW 3 6 30.49 1033 7 11.26538 0 0
8:56 am 08:56 Sunny with Mist and Fog 26 -3.3 24 -4.4 92 92 SSW 6 9 30.52 1033 6 9.65604 0 0
9:56 am 09:56 Sunny 27 -2.8 23 -5 85 85 S 6 9 30.53 1034 9 14.48406 0 0
10:56 am 10:56 Sunny 30 -1.1 23 -5 75 75 S 7 11 30.54 1034 10 16.0934 0 0
11:56 am 11:56 Sunny 32 0 23 -5 69 69 S 9 15 30.53 1034 10 16.0934 0 0
12:56 pm 12:56 Partly Cloudy 34 1.1 24 -4.4 67 67 S 8 13 30.5 1033 10 16.0934 0 0
1:56 pm 13:56 Cloudy 33 0.6 24 -4.4 70 70 SSE 10 17 30.47 1032 10 16.0934 0 0
2:56 pm 14:56 Cloudy 35 1.7 27 -2.8 72 72 SSE 9 15 30.46 1031 10 16.0934 0 0
3:56 pm 15:56 Partly Cloudy 37 2.8 28 -2.2 70 70 SSE 10 17 30.45 1031 10 16.0934 0 0
4:56 pm 16:56 Sunny 36 2.2 26 -3.3 67 67 S 10 17 30.45 1031 10 16.0934 0 0
5:56 pm 17:56 Clear 35 1.7 27 -2.8 72 72 SSE 9 15 30.44 1031 10 16.0934 0 0
6:56 pm 18:56 Clear 34 1.1 27 -2.8 76 76 SSE 8 13 30.44 1031 10 16.0934 0 0
7:56 pm 19:56 Clear 34 1.1 27 -2.8 76 76 SSE 9 15 30.43 1030 10 16.0934 0 0
8:56 pm 20:56 Clear 34 1.1 26 -3.3 73 73 SSE 8 13 30.44 1031 10 16.0934 0 0
9:56 pm 21:56 Clear 33 0.6 26 -3.3 75 75 SSE 7 11 30.44 1031 10 16.0934 0 0
10:56 pm 22:56 Clear 31 -0.6 26 -3.3 82 82 SSE 8 13 30.44 1031 10 16.0934 0 0
11:56 pm 23:56 Clear 30 -1.1 25 -3.9 82 82 SE 8 13 30.43 1031 10 16.0934 0 0

Powered by AerisWeather